User: anonymous   Login
Location: Unspecified
(0.0000°N, 0.0000°E)
Time: 03:43:30
(UTC+00:00)
Language:

STPSAT 1 - Orbit

View from above orbital plane
View from above orbital plane
View from above satellite
View from above satellite

Ground track
Ground track

The orbit data is extracted from the following two-line orbital elements,

1 30775U 07006D   19053.85485445  .00001340  00000-0  51719-4 0  9991
2 30775  35.4291 223.6955 0002524  59.7780 300.3193 15.26726813661653
Epoch (UTC): 22 February 2019 20:30:59
Eccentricity: 0.0002524
inclination: 35.4291°
perigee height: 484 km
apogee height: 487 km
right ascension of ascending node: 223.6955°
argument of perigee: 59.7780°
revolutions per day: 15.26726813
mean anomaly at epoch: 300.3193°
orbit number at epoch: 66165

The dashed part of the orbit path shows where the satellite is in the earth's shadow,  

DLR